Regional Weather Roundup
Issued by NWS Green Bay, WI

Home | Current Version | Previous Version | Graphics & Text | Print | Product List | Glossary Off
Versions: 1 2 3 4 5 6 7 8 9 10 11 12 13 14 15 16 17 18 19 20 21 22 23 24 25 26 27 28 29 30 31 32 33 34 35 36 37 38 39 40 41 42 43 44 45 46 47 48 49 50

334
ASUS43 KGRB 261800
RWRGRB

NORTH-CENTRAL AND NORTHEAST WISCONSIN REGIONAL WEATHER ROUNDUP
NATIONAL WEATHER SERVICE GREEN BAY WI
1200 PM CST SUN FEB 26 2017

WIZ005-009-010>012-018-019-261900-
NORTH CENTRAL WISCONSIN

CITY           SKY/WX    TMP DP  RH WIND       PRES   REMARKS
IRONWOOD       FLURRIES  29  22  75 W13       29.65S
MANITOWISH WTR NOT AVBL
ARBOR VITAE    NOT AVBL
EAGLE RIVER    NOT AVBL
LAND O LAKES   NOT AVBL
RHINELANDER    CLOUDY    30  21  69 SW14G24   29.68F
PHILLIPS       NOT AVBL
ANTIGO         NOT AVBL
TOMAHAWK       NOT AVBL
MERRILL        NOT AVBL
$$

WIZ013-073-261900-
NORTHEAST WISCONSIN

CITY           SKY/WX    TMP DP  RH WIND       PRES   REMARKS
IRON MOUNTAIN  CLOUDY    30  18  60 SW10G17   29.68F
MARINETTE      MOSUNNY   33  20  58 SW16G23   29.75F
$$

WIZ017-030-035>037-045-261900-
CENTRAL WISCONSIN

CITY           SKY/WX    TMP DP  RH WIND       PRES   REMARKS
MEDFORD        NOT AVBL
WAUSAU         PTSUNNY   31  20  63 W13       29.73S
MOSINEE        MOSUNNY   32  21  64 SW16G25   29.76S
MARSHFIELD     PTSUNNY   33  20  58 W14       29.75R
WISC RAPIDS    SUNNY     36  21  54 W15       29.78F
STEVENS POINT  NOT AVBL
WAUPACA        NOT AVBL
SHAWANO        SUNNY     37  21  54 SW12G20   29.77F
CLINTONVILLE   NOT AVBL
WAUTOMA        SUNNY     37  22  54 SW17      29.80S
$$

WIZ038-039-048-051-261900-
FOX VALLEY

CITY           SKY/WX    TMP DP  RH WIND       PRES   REMARKS
NWS GREEN BAY  SUNNY     34  24  67 SW13      29.79F
APPLETON       MOSUNNY   34  19  55 SW15      29.78S
OSHKOSH        SUNNY     34  22  61 SW10G20   29.80S
FOND DU LAC    SUNNY     35  21  56 SW17G25   29.82S
$$

WIZ022-050-052-261900-
EAST CENTRAL WISCONSIN

CITY           SKY/WX    TMP DP  RH WIND       PRES   REMARKS
EPHRAIM        NOT AVBL
WASHINGTON ISL NOT AVBL
STURGEON BAY   CLOUDY    34  23  64 SW21G26   29.77F
MANITOWOC      NOT AVBL
SHEBOYGAN      PTSUNNY   35  22  58 SW18      29.82F
$$

LMZ563-521-522-541>543-261900-
LAKESHORE

STATION/POSITION TIME  TEMP    WIND        PRES    VSBY  WAVE
                       AIR SEA DIR/SP/G                  HT/PER
                 (UTC) (F)     (DEG/KT/KT) (MB)    (MI)  (FT/S)
SHEBOYGAN LKSHOR 1700   34     220/ 16/ 23 1011.1F
KEWAUNEE LKSHORE 1730   33     220/ 12/ 20 1009.1F
NORTHPORT PIER   1740   32     230/  6/ 18 1007.8F
SISTER BAY LKSHO 1650   33        CALM       N/A
CHAMBERS ISLAND  1740   33     190/ 10/ 17 1007.5F
MENOMINEE LKSHOR 1730   32     220/ 15/ 23 1007.2F
$$




USA.gov is the U.S. government's official web portal to all federal, state and local government web resources and services.